Location: Degersen
(52.2871°N, 9.5716°E)
Time: 20:00:46
(UTC+00:00)

Cosmos 2228 Rocket - Pass Details

Date: 20 January 2026
Orbit: 612 x 647 km, 82.5° (Epoch: 16 February)

Event Time Altitude Azimuth Distance (km) Brightness Sun altitude
Exits shadow 05:47:23 - 340° (NNW) 2,357 5.7 -13.6°
Reaches altitude 10° 05:48:20 10° 337° (NNW) 1,986 5.3 -13.5°
Maximum altitude 05:52:27 41° 267° (W) 892 3.4 -12.9°
Drops below altitude 10° 05:56:32 10° 198° (SSW) 1,966 5.6 -12.3°
Sets 05:58:50 0° 191° (S) 2,867 6.6 -11.9°
